Glasgow, MT

3:50 AM MDT on May 23, 2017 (GMT -0600)
Wokal-Glasgow International

Weather History for KGGW - March, 2012

Change the Weather History Date:

Tuesday, March 13, 2012

  Actual Average Record
Temperature  
Mean Temperature 51 °F 30 °F  
Max Temperature 69 °F 41 °F 69 °F (2012)
Min Temperature 33 °F 20 °F -34 °F (1897)
Degree Days  
Heating Degree Days 14 35  
Month to date heating degree days 372 491  
Since 1 July heating degree days 5873 6861  
Cooling Degree Days 0 0  
Month to date cooling degree days 0 0  
Year to date cooling degree days 0 0  
Growing Degree Days 2 (Base 50)    
Moisture  
Dew Point 25 °F    
Average Humidity 48    
Maximum Humidity 75    
Minimum Humidity 20    
Precipitation  
Precipitation 0.00 in 0.01 in 0.55 in (1898)
Month to date precipitation 0.35 0.15  
Year to date precipitation 1.24 0.78  
Snow  
Snow 0.00 in 0.10 in 1.70 in (1990)
Month to date snowfall 4.2 2.2  
Since 1 July snowfall 25.6 29.2  
Snow Depth 0.00 in    
Sea Level Pressure  
Sea Level Pressure 29.50 in    
Wind  
Wind Speed 16 mph (SSE)    
Max Wind Speed 44 mph    
Max Gust Speed 55 mph    
Visibility 10 miles    
Events      
T = Trace of Precipitation, MM = Missing Value Source: NWS Daily Summary

Daily Weather History Graph

Daily Weather History Graph

Search for Another Location

Airport or City:

Trip Planner

Search our weather history database for the weather conditions in past years. The results will help you decide how hot, cold, wet, or windy it might be!

Date:

Astronomy

Mar. 13, 2012 Rise Set
Actual Time 7:22 AM MDT 7:09 PM MDT
Civil Twilight 6:51 AM MDT 7:40 PM MDT
Nautical Twilight 6:15 AM MDT 8:17 PM MDT
Astronomical Twilight 5:38 AM MDT 8:54 PM MDT
Moon 1:14 AM MDT (3/13) 10:07 AM MDT (3/13)
Length of Visible Light 12h 49m
Length of Day
11h 47m
Waning Gibbous, 65% of the Moon is Illuminated
Mar 13
Waning Gibbous
Mar 14
Last Quarter
Mar 22
New
Mar 30
First Quarter
Apr 6
Full

Hourly Weather History & Observations

Time (MDT) Temp. Windchill Dew Point Humidity Pressure Visibility Wind Dir Wind Speed Gust Speed Precip Events Conditions
12:53 AM 35.1 °F 25.5 °F 19.0 °F 52% 29.67 in 10.0 mi ESE 15.0 mph - N/A   Clear
1:53 AM 37.0 °F 28.1 °F 21.0 °F 52% 29.65 in 10.0 mi SE 15.0 mph - N/A   Clear
2:53 AM 36.0 °F 27.1 °F 21.9 °F 57% 29.64 in 10.0 mi ESE 13.8 mph - N/A   Clear
3:53 AM 36.0 °F 27.1 °F 24.1 °F 62% 29.61 in 10.0 mi ESE 13.8 mph - N/A   Clear
4:53 AM 36.0 °F 27.5 °F 25.0 °F 64% 29.59 in 10.0 mi ESE 12.7 mph - N/A   Clear
5:53 AM 37.9 °F 29.2 °F 26.1 °F 62% 29.57 in 10.0 mi SE 15.0 mph - N/A   Clear
6:53 AM 34.0 °F 25.5 °F 26.1 °F 73% 29.55 in 10.0 mi ESE 11.5 mph - N/A   Clear
7:53 AM 34.0 °F 25.5 °F 26.1 °F 73% 29.55 in 10.0 mi ESE 11.5 mph - N/A   Clear
8:53 AM 39.9 °F 31.8 °F 27.0 °F 60% 29.52 in 10.0 mi SE 15.0 mph - N/A   Clear
9:53 AM 45.0 °F 37.6 °F 28.9 °F 53% 29.50 in 10.0 mi SE 17.3 mph - N/A   Clear
10:53 AM 52.0 °F - 30.9 °F 45% 29.47 in 10.0 mi SE 15.0 mph - N/A   Clear
11:53 AM 55.9 °F - 30.0 °F 37% 29.44 in 10.0 mi SE 15.0 mph - N/A   Clear
12:53 PM 60.1 °F - 30.9 °F 33% 29.40 in 10.0 mi ESE 11.5 mph - N/A   Clear
1:20 PM 64.4 °F - 26.6 °F 24% 29.36 in 10.0 mi South 17.3 mph 21.9 mph N/A   Clear
1:53 PM 66.0 °F - 27.0 °F 23% 29.35 in 10.0 mi South 13.8 mph 25.3 mph N/A   Clear
2:53 PM 68.0 °F - 28.0 °F 22% 29.33 in 10.0 mi South 12.7 mph 21.9 mph N/A   Clear
3:53 PM 69.1 °F - 30.0 °F 23% 29.31 in 10.0 mi South 15.0 mph - N/A   Clear
4:53 PM 66.9 °F - 30.0 °F 25% 29.31 in 10.0 mi South 8.1 mph - N/A   Clear
5:53 PM 66.9 °F - 24.1 °F 20% 29.31 in 10.0 mi SSW 17.3 mph 27.6 mph N/A   Clear
6:53 PM 64.9 °F - 23.0 °F 20% 29.33 in 10.0 mi SW 17.3 mph - N/A   Clear
7:53 PM 61.0 °F - 25.0 °F 25% 29.38 in 10.0 mi SW 16.1 mph - N/A   Clear
8:01 PM 55.4 °F - 24.8 °F 31% 29.42 in 10.0 mi WNW 26.5 mph 46.0 mph N/A   Squalls
8:53 PM 48.0 °F - 23.0 °F 37% 29.57 in 10.0 mi WNW 36.8 mph 50.6 mph N/A   Clear
9:53 PM 43.0 °F 33.8 °F 24.1 °F 47% 29.65 in 10.0 mi West 23.0 mph 40.3 mph N/A   Mostly Cloudy
10:53 PM 41.0 °F 31.9 °F 24.1 °F 51% 29.68 in 10.0 mi West 19.6 mph 23.0 mph N/A   Overcast
11:53 PM 42.1 °F 33.9 °F 10.9 °F 28% 29.72 in 10.0 mi West 17.3 mph 25.3 mph N/A   Overcast